Skip Page Navigation
NASA JPL Caltech
NASA Logo - Jet Propulsion Laboratory + View the NASA Portal
+ Center for Near-Earth Object Studies
JPL Home Earth Solar System Stars & Galaxies Technology
JPL Solar System Dynamics
BODIES ORBITS EPHEMERIDES TOOLS PHYSICAL DATA DISCOVERY FAQ SITE MAP
JPL Small-Body Database Browser
Search: [ help ]  
332328 (2006 YK46)
Classification: Main-belt Asteroid          SPK-ID: 2332328
Ephemeris | Orbit Diagram | Orbital Elements | Mission Design | Physical Parameters | Discovery Circumstances | Close-Approach Data ]

[ show orbit diagram ]
Orbital Elements at Epoch 2459000.5 (2020-May-31.0) TDB
Reference: JPL 13 (heliocentric ecliptic J2000)
 Element Value Uncertainty (1-sigma)   Units 
e .07165449617598822 7.8761e-08  
a 2.547539000213397 2.1586e-08 au
q 2.364996376664426 1.9247e-07 au
i 13.24204490713995 4.5359e-06 deg
node 131.3644255128316 3.8127e-05 deg
peri 70.32990765576116 7.0064e-05 deg
M 31.5475288300365 5.5037e-05 deg
tp 2458870.350491007194
(2020-Jan-21.85049101)
0.00022715 TDB
period 1485.182040401227
4.07
1.8877e-05
5.168e-08
d
yr
n .2423945282173927 3.0808e-09 deg/d
Q 2.730081623762369 2.3133e-08 au
  Orbit Determination Parameters
   # obs. used (total)      183  
   data-arc span      6375 days (17.45 yr)  
   first obs. used      2003-01-26  
   last obs. used      2020-07-10  
   planetary ephem.      DE431  
   SB-pert. ephem.      SB431-N16  
   condition code      0  
   norm. resid. RMS      .56757  
   source      ORB  
   producer      Otto Matic  
   solution date      2020-Nov-11 17:38:10  

Additional Information
 Earth MOID = 1.40202 au 
 Jupiter MOID = 2.31237 au 
 T_jup = 3.401 
[ hide covariance matrix ]
Orbital Elements at Epoch 2458020.5 (2017-Sep-24.0) TDB
Reference: JPL 13 (heliocentric ecliptic J2000)
 Element Value Uncertainty (1-sigma)   Units 
e .07184498851039223 7.8625e-08  
q 2.364894994421381 1.9208e-07 au
tp 2457382.907476301624
(2015-Dec-26.40747630)
0.00022903 TDB
node 131.3797188517713 3.8135e-05 deg
peri 69.84941067461381 7.0064e-05 deg
i 13.24025169730678 4.5348e-06 deg
  Orbit Determination Parameters
   # obs. used (total)      183  
   data-arc span      6375 days (17.45 yr)  
   first obs. used      2003-01-26  
   last obs. used      2020-07-10  
   planetary ephem.      DE431  
   SB-pert. ephem.      SB431-N16  
   condition code      0  
   norm. resid. RMS      .56757  
   source      ORB  
   producer      Otto Matic  
   solution date      2020-Nov-11 17:38:10  

Additional Information
 Jupiter MOID = 2.31237 au 
 T_jup = 3.401 
Orbit Covariance (6×6)
  e q tp node peri i
e 6.181830016152373E-15 -1.503646871350472E-14 6.295141260356355E-12 -4.816245606564852E-14 1.507515659742152E-12 -4.403536535966527E-14
q -1.503646871350472E-14 3.689401644342596E-14 -1.663367668289523E-11 1.17638447940329E-13 -3.981861038825533E-12 1.100195013072424E-13
tp 6.295141260356355E-12 -1.663367668289523E-11 5.245570141942108E-8 1.360302039973052E-11 1.357227719352745E-8 -1.183825911728809E-10
node -4.816245606564852E-14 1.17638447940329E-13 1.360302039973052E-11 1.454256101601955E-9 -1.410989707200719E-9 -8.289255843722392E-11
peri 1.507515659742152E-12 -3.981861038825533E-12 1.357227719352745E-8 -1.410989707200719E-9 4.90902584761801E-9 5.114357896173769E-11
i -4.403536535966527E-14 1.100195013072424E-13 -1.183825911728809E-10 -8.289255843722392E-11 5.114357896173769E-11 2.056422952754501E-11

Ephemeris | Orbit Diagram | Orbital Elements | Mission Design | Physical Parameters | Discovery Circumstances | Close-Approach Data ]

Physical Parameter Table
Parameter Symbol Value Units Sigma Reference Notes
absolute magnitude H 16.8   n/a MPO471446  

332328 (2006 YK46)          Discovered 2006-Dec-21 by Mt. Lemmon Survey at Mount Lemmon
Reference: 20120703/Numbers.arcLast Updated: 2012-07-09

[ hide close-approach data ]
Close-Approach Data   ...sorted by Date/Time (TDB)
Date/Time (TDB) Time Uncertainty
(days_HH:MM)
Body Nominal Distance (au) Minimum Distance (au) Maximum Distance (au) V-relative (km/s) V-infinity (km/s) JD (TDB) Time Uncertainty (minutes) Semi-major axis (km) Semi-minor axis (km) range-LOV angle (deg) N-sigma BP Orbit Ref. Reference Modified
2160-Aug-28 16:22 01:29 David 0.0418446784320786 0.0417474381996515 0.0419423297726653 3.33991633389146 3.33991622579606 2510224.182245480 88.8304542844239 8197.38971546494 717.143909763561 -53.9884164015353 7066.04448480899 T 13 CATAB v2.0f-lin.ifort 2020-Nov-11 17:38:11 2020-Nov-11 17:38

Alternate Designations
 2006 YK46 = 2003 BE36 
Ephemeris | Orbit Diagram | Orbital Elements | Mission Design | Physical Parameters | Discovery Circumstances | Close-Approach Data ]
ABOUT SSD CREDITS/AWARDS PRIVACY/COPYRIGHT GLOSSARY LINKS
FirstGov 2020-Nov-28 20:53 UT
(server date/time)  
NASA Home Page
Site Manager:   Ryan S. Park
Webmaster  Alan B. Chamberlin